| time (UTC) | temp F | wind direction | speed MPH | gust MPH | rain 1hr in | rain 24hr in | rain mn in | humidity % | barometer mb |
| 20260503221552 | 83 | 201 | 13.0 | 22.0 | 0.00 | 0.00 | 0.00 | 15 | 1009.0 |
| 20260503221048 | 82 | 201 | 14.0 | 22.0 | 0.00 | 0.00 | 0.00 | 16 | 1009.1 |
| 20260503220548 | 82 | 226 | 17.0 | 22.0 | 0.00 | 0.00 | 0.00 | 16 | 1009.2 |
| 20260503220056 | 82 | 200 | 14.0 | 21.0 | 0.00 | 0.00 | 0.00 | 16 | 1009.2 |
| 20260503215549 | 82 | 215 | 14.0 | 21.0 | 0.00 | 0.00 | 0.00 | 15 | 1009.4 |
| 20260503215049 | 82 | 214 | 14.0 | 24.0 | 0.00 | 0.00 | 0.00 | 16 | 1009.3 |
| 20260503214550 | 82 | 205 | 15.0 | 24.0 | 0.00 | 0.00 | 0.00 | 16 | 1009.4 |
| 20260503214049 | 82 | 218 | 13.0 | 24.0 | 0.00 | 0.00 | 0.00 | 16 | 1009.5 |
| 20260503213549 | 82 | 188 | 14.0 | 24.0 | 0.00 | 0.00 | 0.00 | 16 | 1009.6 |
| 20260503213100 | 82 | 195 | 18.0 | 24.0 | 0.00 | 0.00 | 0.00 | 16 | 1009.7 |
| 20260503212548 | 82 | 178 | 15.0 | 25.0 | 0.00 | 0.00 | 0.00 | 16 | 1009.8 |
| 20260503212048 | 82 | 193 | 12.0 | 25.0 | 0.00 | 0.00 | 0.00 | 17 | 1009.9 |
| 20260503211549 | 82 | 202 | 17.0 | 25.0 | 0.00 | 0.00 | 0.00 | 16 | 1010.0 |
| 20260503211048 | 82 | 205 | 14.0 | 23.0 | 0.00 | 0.00 | 0.00 | 16 | 1010.2 |
| 20260503210552 | 83 | 237 | 15.0 | 27.0 | 0.00 | 0.00 | 0.00 | 16 | 1010.2 |
| 20260503210059 | 83 | 205 | 17.0 | 27.0 | 0.00 | 0.00 | 0.00 | 16 | 1010.3 |
| 20260503205549 | 82 | 203 | 16.0 | 23.0 | 0.00 | 0.00 | 0.00 | 16 | 1010.3 |
| 20260503205049 | 83 | 185 | 15.0 | 24.0 | 0.00 | 0.00 | 0.00 | 16 | 1010.4 |
| 20260503204554 | 82 | 218 | 13.0 | 24.0 | 0.00 | 0.00 | 0.00 | 16 | 1010.6 |
| 20260503204046 | 82 | 212 | 17.0 | 24.0 | 0.00 | 0.00 | 0.00 | 16 | 1010.7 |
| 20260503203550 | 82 | 197 | 14.0 | 24.0 | 0.00 | 0.00 | 0.00 | 17 | 1010.7 |
| 20260503203048 | 83 | 205 | 16.0 | 24.0 | 0.00 | 0.00 | 0.00 | 17 | 1010.8 |
| 20260503202548 | 83 | 238 | 15.0 | 25.0 | 0.00 | 0.00 | 0.00 | 17 | 1010.8 |
| 20260503202048 | 82 | 211 | 15.0 | 26.0 | 0.00 | 0.00 | 0.00 | 18 | 1010.9 |
| 20260503201553 | 82 | 219 | 16.0 | 26.0 | 0.00 | 0.00 | 0.00 | 17 | 1010.9 |
| 20260503201047 | 82 | 197 | 16.0 | 26.0 | 0.00 | 0.00 | 0.00 | 18 | 1011.0 |
| 20260503200549 | 83 | 216 | 15.0 | 22.0 | 0.00 | 0.00 | 0.00 | 17 | 1011.2 |
| 20260503200057 | 82 | 223 | 15.0 | 24.0 | 0.00 | 0.00 | 0.00 | 16 | 1011.2 |
| 20260503195549 | 82 | 205 | 17.0 | 25.0 | 0.00 | 0.00 | 0.00 | 16 | 1011.3 |
| 20260503195045 | 83 | 204 | 15.0 | 26.0 | 0.00 | 0.00 | 0.00 | 16 | 1011.3 |
| 20260503194553 | 83 | 228 | 17.0 | 26.0 | 0.00 | 0.00 | 0.00 | 17 | 1011.4 |
| 20260503194049 | 82 | 162 | 17.0 | 26.0 | 0.00 | 0.00 | 0.00 | 17 | 1011.4 |
| 20260503193549 | 82 | 212 | 16.0 | 28.0 | 0.00 | 0.00 | 0.00 | 17 | 1011.6 |
| 20260503193055 | 82 | 186 | 17.0 | 28.0 | 0.00 | 0.00 | 0.00 | 17 | 1011.6 |
| 20260503192545 | 82 | 195 | 14.0 | 30.0 | 0.00 | 0.00 | 0.00 | 18 | 1011.6 |
| 20260503192048 | 82 | 242 | 17.0 | 30.0 | 0.00 | 0.00 | 0.00 | 17 | 1011.7 |
| 20260503191610 | 82 | 202 | 18.0 | 30.0 | 0.00 | 0.00 | 0.00 | 17 | 1011.8 |
| 20260503191049 | 82 | 220 | 17.0 | 28.0 | 0.00 | 0.00 | 0.00 | 18 | 1011.9 |
| 20260503190549 | 82 | 184 | 20.0 | 28.0 | 0.00 | 0.00 | 0.00 | 18 | 1012.0 |
| 20260503190056 | 82 | 205 | 15.0 | 25.0 | 0.00 | 0.00 | 0.00 | 19 | 1012.1 |
| 20260503185551 | 81 | 203 | 16.0 | 25.0 | 0.00 | 0.00 | 0.00 | 18 | 1012.2 |
| 20260503185050 | 81 | 207 | 18.0 | 25.0 | 0.00 | 0.00 | 0.00 | 17 | 1012.4 |
| 20260503184600 | 81 | 219 | 15.0 | 25.0 | 0.00 | 0.00 | 0.00 | 17 | 1012.5 |
| 20260503184054 | 81 | 217 | 17.0 | 25.0 | 0.00 | 0.00 | 0.00 | 18 | 1012.6 |
| 20260503183548 | 81 | 187 | 19.0 | 28.0 | 0.00 | 0.00 | 0.00 | 18 | 1012.7 |
| 20260503183112 | 81 | 210 | 16.0 | 28.0 | 0.00 | 0.00 | 0.00 | 19 | 1012.9 |
| 20260503182548 | 81 | 212 | 17.0 | 28.0 | 0.00 | 0.00 | 0.00 | 18 | 1013.0 |
| 20260503182046 | 81 | 255 | 17.0 | 26.0 | 0.00 | 0.00 | 0.00 | 19 | 1013.1 |
| 20260503181555 | 80 | 231 | 19.0 | 26.0 | 0.00 | 0.00 | 0.00 | 19 | 1013.2 |
| 20260503181049 | 80 | 219 | 17.0 | 28.0 | 0.00 | 0.00 | 0.00 | 20 | 1013.3 |
| 20260503180549 | 80 | 238 | 19.0 | 28.0 | 0.00 | 0.00 | 0.00 | 18 | 1013.5 |
| 20260503180056 | 80 | 233 | 20.0 | 25.0 | 0.00 | 0.00 | 0.00 | 18 | 1013.6 |
| 20260503175548 | 80 | 231 | 17.0 | 25.0 | 0.00 | 0.00 | 0.00 | 19 | 1013.6 |
| 20260503175050 | 79 | 221 | 17.0 | 26.0 | 0.00 | 0.00 | 0.00 | 21 | 1013.8 |
| 20260503174558 | 79 | 210 | 17.0 | 26.0 | 0.00 | 0.00 | 0.00 | 20 | 1014.0 |
| 20260503174048 | 79 | 232 | 18.0 | 25.0 | 0.00 | 0.00 | 0.00 | 20 | 1014.0 |
| 20260503173545 | 79 | 209 | 18.0 | 26.0 | 0.00 | 0.00 | 0.00 | 20 | 1014.2 |
| 20260503173113 | 79 | 209 | 17.0 | 26.0 | 0.00 | 0.00 | 0.00 | 20 | 1014.2 |
| 20260503172550 | 79 | 236 | 17.0 | 25.0 | 0.00 | 0.00 | 0.00 | 20 | 1014.3 |
| 20260503172049 | 79 | 227 | 13.0 | 26.0 | 0.00 | 0.00 | 0.00 | 21 | 1014.3 |
| 20260503171550 | 78 | 225 | 17.0 | 29.0 | 0.00 | 0.00 | 0.00 | 22 | 1014.4 |
| 20260503171048 | 78 | 231 | 18.0 | 29.0 | 0.00 | 0.00 | 0.00 | 23 | 1014.5 |
| 20260503170549 | 78 | 225 | 19.0 | 29.0 | 0.00 | 0.00 | 0.00 | 22 | 1014.5 |
| 20260503150545 | 71 | 248 | 13.0 | 20.0 | 0.00 | 0.00 | 0.00 | 31 | 1015.9 |
| 20260503131051 | 54 | 227 | 11.0 | 13.0 | 0.00 | 0.00 | 0.00 | 53 | 1016.6 |
| 20260503130549 | 54 | 237 | 8.0 | 13.0 | 0.00 | 0.00 | 0.00 | 55 | 1016.7 |
| 20260503120109 | 45 | 0 | 1.0 | 5.0 | 0.00 | 0.00 | 0.00 | 71 | 1016.3 |
| 20260503110549 | 46 | 0 | 0.0 | 7.0 | 0.00 | 0.00 | 0.00 | 72 | 1016.2 |
| 20260503081549 | 49 | 187 | 9.0 | 14.0 | 0.00 | 0.00 | 0.00 | 61 | 1017.5 |
| 20260503081048 | 50 | 193 | 9.0 | 14.0 | 0.00 | 0.00 | 0.00 | 60 | 1017.5 |
| 20260503080547 | 50 | 170 | 10.0 | 15.0 | 0.00 | 0.00 | 0.00 | 60 | 1017.5 |
| 20260503072547 | 51 | 168 | 10.0 | 16.0 | 0.00 | 0.00 | 0.00 | 58 | 1017.8 |
| 20260503072050 | 51 | 158 | 10.0 | 16.0 | 0.00 | 0.00 | 0.00 | 58 | 1017.9 |
| 20260503071557 | 51 | 163 | 9.0 | 16.0 | 0.00 | 0.00 | 0.00 | 58 | 1017.9 |
| 20260503071046 | 51 | 143 | 10.0 | 15.0 | 0.00 | 0.00 | 0.00 | 57 | 1017.9 |
| 20260503070545 | 51 | 160 | 10.0 | 15.0 | 0.00 | 0.00 | 0.00 | 57 | 1017.9 |
| 20260503070104 | 52 | 165 | 11.0 | 15.0 | 0.00 | 0.00 | 0.00 | 56 | 1017.9 |
| 20260503055048 | 48 | 155 | 6.0 | 8.0 | 0.00 | 0.00 | 0.00 | 57 | 1018.3 |
| 20260503054607 | 49 | 147 | 6.0 | 8.0 | 0.00 | 0.00 | 0.00 | 56 | 1018.4 |
| 20260503054049 | 50 | 148 | 6.0 | 10.0 | 0.00 | 0.00 | 0.00 | 56 | 1018.4 |
| 20260503053547 | 50 | 144 | 7.0 | 11.0 | 0.00 | 0.00 | 0.00 | 55 | 1018.4 |
| 20260503053055 | 50 | 155 | 7.0 | 11.0 | 0.00 | 0.00 | 0.00 | 55 | 1018.4 |
| 20260503052547 | 50 | 149 | 8.0 | 11.0 | 0.00 | 0.00 | 0.00 | 55 | 1018.4 |
| 20260503052046 | 50 | 159 | 8.0 | 11.0 | 0.00 | 0.00 | 0.00 | 54 | 1018.3 |
| 20260503051605 | 51 | 149 | 8.0 | 12.0 | 0.00 | 0.00 | 0.00 | 54 | 1018.3 |
| 20260503051046 | 51 | 145 | 8.0 | 12.0 | 0.00 | 0.00 | 0.00 | 53 | 1018.4 |
| 20260503050547 | 51 | 155 | 8.0 | 12.0 | 0.00 | 0.00 | 0.00 | 53 | 1018.3 |
| 20260503050057 | 52 | 151 | 8.0 | 11.0 | 0.00 | 0.00 | 0.00 | 53 | 1018.3 |
| 20260503045552 | 52 | 146 | 8.0 | 13.0 | 0.00 | 0.00 | 0.00 | 52 | 1018.3 |
| 20260503045050 | 52 | 145 | 9.0 | 13.0 | 0.00 | 0.00 | 0.00 | 52 | 1018.2 |
| 20260503044603 | 52 | 158 | 9.0 | 13.0 | 0.00 | 0.00 | 0.00 | 52 | 1018.3 |
| 20260503044046 | 52 | 159 | 9.0 | 12.0 | 0.00 | 0.00 | 0.00 | 52 | 1018.2 |
| 20260503043548 | 52 | 158 | 9.0 | 12.0 | 0.00 | 0.00 | 0.00 | 52 | 1018.3 |
| 20260503043054 | 52 | 154 | 8.0 | 12.0 | 0.00 | 0.00 | 0.00 | 51 | 1018.2 |
| 20260503042547 | 52 | 161 | 9.0 | 11.0 | 0.00 | 0.00 | 0.00 | 51 | 1018.2 |
| 20260503042047 | 52 | 158 | 8.0 | 12.0 | 0.00 | 0.00 | 0.00 | 51 | 1018.3 |
| 20260503041606 | 52 | 151 | 8.0 | 12.0 | 0.00 | 0.00 | 0.00 | 51 | 1018.3 |
| 20260503041047 | 52 | 150 | 8.0 | 11.0 | 0.00 | 0.00 | 0.00 | 52 | 1018.3 |
| 20260503040545 | 51 | 155 | 7.0 | 10.0 | 0.00 | 0.00 | 0.00 | 53 | 1018.3 |
| 20260503040058 | 51 | 154 | 7.0 | 10.0 | 0.00 | 0.00 | 0.00 | 54 | 1018.3 |
| 20260503035547 | 50 | 150 | 4.0 | 8.0 | 0.00 | 0.00 | 0.00 | 54 | 1018.3 |
| 20260503035049 | 50 | 141 | 3.0 | 7.0 | 0.00 | 0.00 | 0.00 | 54 | 1018.3 |
| 20260503034607 | 50 | 0 | 0.0 | 7.0 | 0.00 | 0.00 | 0.00 | 53 | 1018.3 |
| 20260503034047 | 51 | 0 | 3.0 | 7.0 | 0.00 | 0.00 | 0.00 | 52 | 1018.3 |
| 20260503033546 | 52 | 0 | 0.0 | 8.0 | 0.00 | 0.00 | 0.00 | 51 | 1018.3 |
| 20260503033058 | 53 | 0 | 0.0 | 8.0 | 0.00 | 0.00 | 0.00 | 50 | 1018.2 |
| 20260503032547 | 53 | 142 | 6.0 | 8.0 | 0.00 | 0.00 | 0.00 | 50 | 1018.2 |
| 20260503032048 | 53 | 167 | 0.0 | 7.0 | 0.00 | 0.00 | 0.00 | 50 | 1018.3 |
| 20260503031557 | 53 | 0 | 0.0 | 0.0 | 0.00 | 0.00 | 0.00 | 50 | 1018.3 |
| 20260503031049 | 53 | 0 | 0.0 | 0.0 | 0.00 | 0.00 | 0.00 | 51 | 1018.2 |
| 20260503030547 | 52 | 0 | 0.0 | 0.0 | 0.00 | 0.00 | 0.00 | 52 | 1018.1 |
| 20260503030055 | 51 | 0 | 0.0 | 0.0 | 0.00 | 0.00 | 0.00 | 52 | 1018.2 |
| 20260503025548 | 51 | 0 | 0.0 | 0.0 | 0.00 | 0.00 | 0.00 | 52 | 1018.3 |
| 20260503025048 | 51 | 0 | 0.0 | 0.0 | 0.00 | 0.00 | 0.00 | 51 | 1018.1 |
| 20260503024553 | 51 | 0 | 0.0 | 0.0 | 0.00 | 0.00 | 0.00 | 51 | 1018.1 |
| 20260503024048 | 51 | 0 | 0.0 | 0.0 | 0.00 | 0.00 | 0.00 | 50 | 1018.2 |
| 20260503023545 | 52 | 0 | 0.0 | 0.0 | 0.00 | 0.00 | 0.00 | 49 | 1018.1 |
| 20260503023053 | 52 | 0 | 0.0 | 0.0 | 0.00 | 0.00 | 0.00 | 48 | 1018.0 |
| 20260503022549 | 52 | 0 | 0.0 | 0.0 | 0.00 | 0.00 | 0.00 | 47 | 1018.0 |
| 20260503022048 | 53 | 0 | 0.0 | 0.0 | 0.00 | 0.00 | 0.00 | 47 | 1018.0 |
| 20260503021551 | 53 | 0 | 0.0 | 0.0 | 0.00 | 0.00 | 0.00 | 46 | 1018.0 |
| 20260503021049 | 53 | 0 | 0.0 | 0.0 | 0.00 | 0.00 | 0.00 | 47 | 1017.9 |
| 20260503020549 | 54 | 0 | 0.0 | 0.0 | 0.00 | 0.00 | 0.00 | 46 | 1017.9 |
| 20260503020051 | 54 | 0 | 0.0 | 0.0 | 0.00 | 0.00 | 0.00 | 46 | 1017.9 |
| 20260503015546 | 55 | 0 | 0.0 | 5.0 | 0.00 | 0.00 | 0.00 | 44 | 1017.8 |
| 20260503015048 | 56 | 0 | 0.0 | 5.0 | 0.00 | 0.00 | 0.00 | 44 | 1017.8 |
| 20260503014610 | 57 | 0 | 4.0 | 5.0 | 0.00 | 0.00 | 0.00 | 43 | 1017.7 |
| 20260503014049 | 57 | 141 | 4.0 | 5.0 | 0.00 | 0.00 | 0.00 | 42 | 1017.6 |
| 20260503013549 | 59 | 146 | 3.0 | 5.0 | 0.00 | 0.00 | 0.00 | 41 | 1017.6 |
| 20260503013055 | 61 | 0 | 0.0 | 0.0 | 0.00 | 0.00 | 0.00 | 40 | 1017.6 |
| 20260503012550 | 63 | 0 | 0.0 | 0.0 | 0.00 | 0.00 | 0.00 | 38 | 1017.6 |
| 20260503012049 | 65 | 0 | 0.0 | 0.0 | 0.00 | 0.00 | 0.00 | 37 | 1017.7 |
| 20260503011551 | 67 | 0 | 0.0 | 0.0 | 0.00 | 0.00 | 0.00 | 34 | 1017.7 |
| 20260503011047 | 69 | 0 | 0.0 | 0.0 | 0.00 | 0.00 | 0.00 | 31 | 1017.9 |
| 20260503010549 | 71 | 0 | 0.0 | 4.0 | 0.00 | 0.00 | 0.00 | 28 | 1017.8 |
| 20260503010055 | 71 | 0 | 0.0 | 6.0 | 0.00 | 0.00 | 0.00 | 27 | 1017.7 |
| 20260503005549 | 72 | 211 | 1.0 | 6.0 | 0.00 | 0.00 | 0.00 | 26 | 1017.6 |
| 20260503005052 | 73 | 222 | 0.0 | 5.0 | 0.00 | 0.00 | 0.00 | 26 | 1017.5 |
| 20260503004555 | 73 | 0 | 0.0 | 3.0 | 0.00 | 0.00 | 0.00 | 25 | 1017.6 |
| 20260503004050 | 73 | 160 | 0.0 | 5.0 | 0.00 | 0.00 | 0.00 | 26 | 1017.6 |
| 20260503003549 | 72 | 0 | 0.0 | 7.0 | 0.00 | 0.00 | 0.00 | 26 | 1017.7 |
| 20260503003053 | 72 | 254 | 2.0 | 7.0 | 0.00 | 0.00 | 0.00 | 25 | 1017.7 |
| 20260503002549 | 72 | 260 | 0.0 | 7.0 | 0.00 | 0.00 | 0.00 | 25 | 1017.8 |
| 20260503002048 | 72 | 0 | 2.0 | 7.0 | 0.00 | 0.00 | 0.00 | 25 | 1017.9 |
| 20260503001552 | 72 | 280 | 4.0 | 7.0 | 0.00 | 0.00 | 0.00 | 25 | 1017.9 |
| 20260503001048 | 73 | 0 | 0.0 | 0.0 | 0.00 | 0.00 | 0.00 | 24 | 1017.9 |
| 20260503000550 | 73 | 0 | 0.0 | 0.0 | 0.00 | 0.00 | 0.00 | 25 | 1017.9 |
| 20260503000053 | 73 | 0 | 0.0 | 4.0 | 0.00 | 0.00 | 0.00 | 25 | 1017.9 |
| 20260502235548 | 72 | 0 | 0.0 | 7.0 | 0.00 | 0.00 | 0.00 | 25 | 1017.9 |
| 20260502235045 | 72 | 0 | 4.0 | 7.0 | 0.00 | 0.00 | 0.00 | 24 | 1018.1 |
| 20260502234551 | 73 | 290 | 0.0 | 9.0 | 0.00 | 0.00 | 0.00 | 24 | 1018.0 |
| 20260502234049 | 72 | 217 | 3.0 | 9.0 | 0.00 | 0.00 | 0.00 | 25 | 1018.0 |
| 20260502233550 | 72 | 0 | 0.0 | 0.0 | 0.00 | 0.00 | 0.00 | 25 | 1018.1 |
| 20260502233102 | 72 | 0 | 0.0 | 7.0 | 0.00 | 0.00 | 0.00 | 25 | 1018.2 |
| 20260502232548 | 72 | 0 | 0.0 | 9.0 | 0.00 | 0.00 | 0.00 | 25 | 1018.2 |
| 20260502232049 | 72 | 229 | 5.0 | 14.0 | 0.00 | 0.00 | 0.00 | 25 | 1018.2 |
| 20260502231602 | 72 | 221 | 8.0 | 14.0 | 0.00 | 0.00 | 0.00 | 25 | 1018.2 |
| 20260502231047 | 73 | 257 | 7.0 | 13.0 | 0.00 | 0.00 | 0.00 | 24 | 1018.1 |
| 20260502230548 | 73 | 219 | 9.0 | 13.0 | 0.00 | 0.00 | 0.00 | 25 | 1018.2 |
| 20260502230055 | 72 | 0 | 2.0 | 12.0 | 0.00 | 0.00 | 0.00 | 25 | 1018.2 |
| 20260502225546 | 72 | 253 | 5.0 | 14.0 | 0.00 | 0.00 | 0.00 | 26 | 1018.2 |
| 20260502225048 | 73 | 0 | 2.0 | 14.0 | 0.00 | 0.00 | 0.00 | 25 | 1018.3 |
| 20260502224553 | 73 | 266 | 8.0 | 14.0 | 0.00 | 0.00 | 0.00 | 26 | 1018.4 |
| 20260502224049 | 72 | 0 | 0.0 | 8.0 | 0.00 | 0.00 | 0.00 | 27 | 1018.3 |
| 20260502223549 | 72 | 290 | 3.0 | 8.0 | 0.00 | 0.00 | 0.00 | 25 | 1018.4 |
| 20260502223053 | 72 | 0 | 0.0 | 13.0 | 0.00 | 0.00 | 0.00 | 26 | 1018.3 |
| 20260502222546 | 72 | 197 | 4.0 | 15.0 | 0.00 | 0.00 | 0.00 | 26 | 1018.5 |
| 20260502222049 | 72 | 285 | 6.0 | 15.0 | 0.00 | 0.00 | 0.00 | 26 | 1018.6 |